Location: Unspecified
(0.0000°N, 0.0000°E)
Time: 06:27:51
(UTC+00:00)

deb r/b Kosmos R-14 - Visible Passes

Search period start: 17 September 2024 00:00
Search period end: 27 September 2024 00:00
Orbit: 468 x 824 km, 55.9° (Epoch: 16 September)

Date Brightness Start Highest point End Pass type
(mag) Time Alt. Az. Time Alt. Az. Time Alt. Az.
23 Sep ? 20:06:38 10° SSW 20:06:55 11° SSW 20:06:55 11° SSW visible
24 Sep ? 18:53:25 10° SSE 18:54:38 12° SE 18:54:38 12° SE visible
24 Sep ? 20:31:35 10° SW 20:32:20 14° SW 20:32:20 14° SW visible
25 Sep ? 19:15:43 10° S 19:20:08 34° SE 19:20:08 34° SE visible
26 Sep ? 19:40:08 10° SSW 19:45:41 80° W 19:45:41 80° W visible
